FW2265 Weather Reports


time (UTC)temp
C
wind
direction
speed
KPH
gust
KPH
rain 1hr
cm
rain 24hr
cm
rain mn
cm
humidity
%
barometer
mb
20260502181242 23 75 0.0 4.8 0.00 5.54 0.03 43 1020.8
20260502180341 23 42 3.2 11.3 0.00 5.54 0.03 44 1021.0
20260502170444 21 64 0.0 3.2 0.00 5.69 0.03 51 1021.0
20260502164343 20 58 1.6 6.4 0.00 7.26 0.03 52 1021.1
20260502163343 20 77 1.6 8.0 0.00 7.26 0.03 56 1021.1
20260502162343 20 44 0.0 3.2 0.00 7.26 0.03 60 1021.2
20260502160343 19 75 0.0 0.0 0.00 7.32 0.03 64 1021.0
20260502151443 17 42 0.0 1.6 0.00 7.44 0.03 71 1021.0
20260502150441 17 90 0.0 3.2 0.00 7.47 0.03 72 1021.0
20260502122942 12 41 1.6 6.4 0.00 7.67 0.03 91 1019.1
20260502121944 12 35 0.0 3.2 0.00 7.72 0.03 91 1019.0
20260502114043 12 53 0.0 3.2 0.00 7.72 0.03 92 1018.6
20260502113042 12 63 0.0 1.6 0.00 7.72 0.03 91 1018.5
20260502112942 12 35 0.0 1.6 0.00 7.72 0.03 91 1018.5
20260502112042 12 39 0.0 0.0 0.00 7.72 0.03 91 1018.6
20260502110141 12 122 0.0 1.6 0.00 7.72 0.03 90 1018.4
20260502105241 12 90 0.0 0.0 0.00 7.72 0.03 88 1018.2
20260502104243 12 95 0.0 0.0 0.00 7.72 0.03 87 1017.8
20260502103241 12 343 0.0 1.6 0.00 7.75 0.03 86 1017.6
20260502102340 12 313 0.0 0.0 0.00 7.75 0.03 86 1017.6
20260502101344 12 44 0.0 1.6 0.00 7.75 0.03 86 1017.4
20260502090641 12 130 0.0 3.2 0.00 7.75 0.03 87 1016.5
20260502065944 13 76 0.0 3.2 0.00 7.75 0.03 92 1016.4
20260502065842 13 68 0.0 4.8 0.00 7.75 0.03 92 1016.4
20260502064843 13 115 0.0 0.0 0.03 7.75 0.03 93 1016.2
20260502063844 13 79 0.0 3.2 0.03 7.75 0.03 93 1016.3
20260502062843 13 117 0.0 3.2 0.03 7.75 0.03 94 1016.1
20260502060844 13 30 0.0 3.2 0.03 8.15 0.03 93 1016.0
20260502055843 13 68 0.0 8.0 0.03 8.36 0.03 94 1016.2
20260502054841 13 48 1.6 6.4 0.00 8.46 0.00 94 1016.2
20260502053842 13 71 1.6 4.8 0.00 9.30 0.00 95 1016.4
20260502052842 13 64 0.0 3.2 0.00 10.08 0.00 95 1016.5
20260502051843 13 59 1.6 8.0 0.00 10.11 0.00 94 1016.4
20260502050841 13 55 0.0 1.6 0.00 10.11 0.00 95 1016.4
20260502045929 13 45 0.0 0.0 0.00 10.11 10.11 96 1016.4
20260502043931 13 54 1.6 6.4 0.05 10.11 10.11 96 1016.5
20260502042930 13 62 0.0 4.8 0.05 10.11 10.11 95 1016.4
20260502040930 13 81 1.6 11.3 0.05 10.11 10.11 95 1016.3
20260502035931 13 117 0.0 3.2 0.08 10.11 10.11 95 1016.0
20260502034930 13 105 0.0 4.8 0.05 10.06 10.06 96 1015.5
20260502033928 13 328 0.0 0.0 0.05 10.06 10.06 95 1015.8
20260502032930 13 166 1.6 11.3 0.08 10.06 10.06 97 1015.1
20260502031932 13 36 0.0 6.4 0.10 10.06 10.06 97 1014.8
20260502030931 13 72 0.0 0.0 0.10 10.06 10.06 97 1014.0
20260502025930 13 62 0.0 4.8 0.10 10.03 10.03 96 1014.0
20260502023929 14 117 0.0 1.6 0.10 10.01 9.98 96 1014.6
20260502022930 14 110 0.0 3.2 0.13 9.98 9.98 96 1014.4
20260502021929 14 200 0.0 3.2 0.15 9.96 9.96 96 1014.6
20260502020930 14 41 1.6 4.8 0.15 9.96 9.96 97 1014.4
20260502012929 15 126 0.0 0.0 0.30 9.96 9.86 98 1013.3
20260502012028 15 107 0.0 3.2 0.51 9.93 9.80 98 1013.2
20260502011029 15 118 0.0 4.8 0.69 9.93 9.80 98 1012.6
20260502005030 15 35 1.6 3.2 0.84 10.13 9.75 98 1011.5
20260502004028 15 107 0.0 0.0 0.79 10.21 9.70 97 1011.9
20260502003029 15 55 0.0 4.8 0.69 10.34 9.55 97 1012.4
20260502002030 15 142 0.0 0.0 0.48 10.08 9.30 97 1012.2
20260502001129 15 38 0.0 3.2 0.30 9.91 9.12 97 1011.6
20260502000129 15 24 1.6 4.8 0.15 9.70 8.94 97 1011.5
20260501235131 15 88 0.0 4.8 0.15 9.70 8.94 97 1011.5
20260501234130 15 64 1.6 6.4 0.13 9.68 8.92 97 1011.7
20260501233228 15 44 1.6 6.4 0.10 9.65 8.89 97 1011.1
20260501232229 15 52 3.2 11.3 0.05 9.60 8.84 96 1010.6
20260501231229 15 75 1.6 12.9 0.05 9.60 8.84 97 1010.6
20260501230231 16 60 0.0 4.8 0.03 9.55 8.79 97 1011.1
20260501225231 16 43 3.2 9.7 0.05 9.55 8.79 97 1011.4
20260501224229 16 37 1.6 6.4 0.08 9.55 8.79 97 1011.3
20260501223229 16 77 1.6 6.4 0.18 9.55 8.79 96 1010.9
20260501222228 16 68 0.0 6.4 0.25 9.55 8.79 97 1010.9
20260501220231 16 37 1.6 6.4 0.53 9.53 8.74 98 1011.8
20260501213330 16 42 1.6 4.8 1.12 9.40 8.61 97 1010.2
20260501212330 16 31 0.0 3.2 1.07 9.30 8.53 97 1010.9
20260501210329 16 50 1.6 4.8 2.03 9.04 8.23 98 1010.9
20260501205428 16 95 0.0 3.2 1.88 8.74 7.95 97 1011.1
20260501204430 16 39 1.6 6.4 2.31 8.46 7.62 96 1010.3
20260501204331 16 33 4.8 12.9 2.36 8.38 7.59 97 1010.2
20260501203329 16 78 0.0 4.8 2.74 8.28 7.52 97 1010.1
20260501202330 16 64 3.2 8.0 2.69 8.23 7.44 98 1009.6
20260501201329 16 65 0.0 6.4 1.98 7.47 6.60 98 1010.1
20260501200330 16 9 0.0 3.2 1.60 7.01 6.22 98 1010.1
20260501200228 16 64 0.0 1.6 1.57 6.99 6.22 98 1010.3
20260501195229 16 45 0.0 3.2 1.37 6.78 5.97 97 1010.0
20260501195130 16 135 0.0 0.0 1.32 6.73 5.87 97 1009.9
20260501194129 16 68 0.0 3.2 0.46 5.84 5.03 97 1009.5
20260501193129 16 327 1.6 4.8 0.18 5.54 4.78 96 1009.5
20260501192130 17 55 1.6 11.3 0.15 5.51 4.75 96 1008.9
20260501191129 17 46 3.2 16.1 0.08 5.44 4.67 97 1010.5
20260501190130 17 225 0.0 0.0 0.05 5.41 4.65 96 1011.2
20260501185131 17 52 1.6 6.4 0.05 5.41 4.65 96 1009.6
20260501184229 17 247 0.0 3.2 0.03 5.38 4.62 97 1011.1
20260501183230 17 245 3.2 4.8 0.00 5.36 4.60 97 1009.7
20260501182230 17 49 3.2 6.4 0.00 5.36 4.60 97 1010.4